Date,TemperatureHighF,TemperatureAvgF,TemperatureLowF,DewpointHighF,DewpointAvgF,DewpointLowF,HumidityHigh,HumidityAvg,HumidityLow,PressureMaxIn,PressureMinIn,WindSpeedMaxMPH,WindSpeedAvgMPH,GustSpeedMaxMPH,PrecipitationSumIn
2013-1-1,39.6,33.0,21.7,27.3,21.5,8.8,70,62,56,30.08,29.88,6,2,6,0.00
2013-1-2,29.5,22.6,14.5,16.9,12.0,6.1,71,63,57,30.24,30.06,3,0,3,0.00
2013-1-3,29.5,21.7,11.8,15.6,9.7,0.2,67,60,54,30.26,30.14,4,0,4,0.00
2013-1-4,38.5,30.8,22.8,27.2,20.8,14.3,75,66,58,30.15,29.99,5,1,5,0.01
2013-1-5,41.7,33.4,27.1,27.2,22.0,19.1,73,63,53,30.36,30.04,6,1,6,0.00
2013-1-6,44.2,34.7,27.9,32.4,26.2,20.3,76,71,61,30.32,30.05,3,0,3,0.00
2013-1-7,39.2,31.3,24.4,28.2,22.3,17.0,82,70,52,30.52,30.11,5,1,5,0.00
2013-1-8,47.1,32.8,20.5,33.6,24.1,14.6,83,71,55,30.50,30.42,6,1,6,0.01
2013-1-9,44.1,35.2,24.3,35.2,28.5,19.6,82,77,67,30.50,30.21,5,1,5,0.00
2013-1-10,44.2,39.2,30.4,34.6,25.8,21.9,75,59,47,30.67,30.24,8,2,8,0.12
2013-1-11,39.9,34.3,26.6,35.2,27.8,20.5,85,77,67,30.66,30.26,0,0,0,0.00
2013-1-12,47.5,43.2,39.0,43.2,39.3,34.9,88,86,84,30.30,30.22,1,0,1,0.00
2013-1-13,51.3,46.0,42.1,47.2,42.6,39.2,91,88,83,30.27,30.12,4,0,4,0.00
2013-1-14,55.6,47.1,36.9,51.1,40.5,27.0,92,79,61,30.41,29.99,6,1,6,0.00
2013-1-15,38.8,35.9,32.4,29.2,27.2,25.6,77,70,63,30.45,30.33,5,0,5,0.04
2013-1-16,36.0,34.0,32.4,32.3,29.1,25.4,87,82,66,30.34,29.95,2,0,2,0.01
2013-1-17,44.2,36.0,28.8,34.6,28.5,17.4,87,75,62,30.22,29.98,3,1,3,0.13
2013-1-18,28.6,24.3,19.8,16.8,9.6,4.7,61,53,44,30.57,30.15,5,1,5,0.00
2013-1-19,45.5,34.5,22.5,32.8,22.9,10.7,71,62,56,30.49,30.03,7,2,7,0.10
2013-1-20,51.6,39.7,28.4,33.7,24.9,11.6,75,57,37,30.09,29.74,7,3,7,0.05
2013-1-21,34.2,27.8,22.3,20.0,14.4,8.1,74,57,45,30.20,29.91,4,0,4,0.00
2013-1-22,25.9,19.5,12.7,18.7,6.0,-3.3,77,56,41,30.23,29.89,6,1,6,0.00
2013-1-23,17.8,12.8,8.6,0.2,-2.9,-5.0,57,49,41,30.29,30.22,5,1,5,0.00
2013-1-24,20.5,12.8,4.5,0.1,-2.9,-5.9,62,50,37,30.42,30.22,9,2,9,0.00
2013-1-25,26.6,18.8,12.0,9.6,3.4,-1.6,62,51,41,30.48,30.16,3,0,3,0.00
2013-1-26,19.8,16.7,12.9,9.9,5.8,1.8,70,62,47,30.36,30.13,4,0,4,0.00
2013-1-27,28.4,23.2,16.9,8.5,6.2,1.8,64,49,37,30.57,30.36,2,1,2,0.00
2013-1-28,35.4,32.6,22.6,29.4,23.5,5.4,79,69,37,30.57,30.07,4,0,4,0.00
2013-1-29,41.2,36.3,31.8,33.9,30.5,26.7,84,79,75,30.30,30.07,1,0,1,0.11
2013-1-30,55.2,46.9,36.7,52.9,43.8,32.3,92,89,84,30.23,29.55,9,2,9,0.08
2013-1-31,58.6,45.8,30.6,56.6,34.9,15.4,93,67,42,29.74,29.10,20,5,20,0.90